Time,TemperatureF,DewpointF,PressureIn,WindDirection,WindDirectionDegrees,WindSpeedMPH,WindSpeedGustMPH,Humidity,HourlyPrecipIn,Conditions,Clouds,dailyrainin,SoftwareType,DateUTC
2013-02-23 00:01:00,29.0,26.0,-100.00,North,-999,-999.0,-999.0,87,-99.99,,,-99.99,,2013-02-23 08:01:00,
2013-02-23 00:21:00,29.0,26.0,-100.00,North,-999,-999.0,-999.0,87,-99.99,,,-99.99,,2013-02-23 08:21:00,
2013-02-23 00:31:00,28.0,25.0,-100.00,North,-999,-999.0,-999.0,89,-99.99,,,0.00,,2013-02-23 08:31:00,
2013-02-23 00:42:00,28.0,25.0,-100.00,North,-999,-999.0,-999.0,89,-99.99,,,0.00,,2013-02-23 08:42:00,
2013-02-23 00:52:00,28.0,25.0,-100.00,North,-999,-999.0,-999.0,89,-99.99,,,0.00,,2013-02-23 08:52:00,
2013-02-23 01:01:00,28.0,25.0,-100.00,North,-999,-999.0,-999.0,88,-99.99,,,-99.99,,2013-02-23 09:01:00,
2013-02-23 01:11:00,28.0,25.0,-100.00,North,-999,-999.0,-999.0,88,-99.99,,,-99.99,,2013-02-23 09:11:00,
2013-02-23 01:21:00,28.0,25.0,-100.00,North,-999,-999.0,-999.0,88,-99.99,,,-99.99,,2013-02-23 09:21:00,
2013-02-23 01:31:00,27.0,24.0,-100.00,North,-999,-999.0,-999.0,90,-99.99,,,-99.99,,2013-02-23 09:31:00,
2013-02-23 01:42:00,27.0,24.0,-100.00,North,-999,-999.0,-999.0,90,-99.99,,,-99.99,,2013-02-23 09:42:00,
2013-02-23 01:52:00,27.0,24.0,-100.00,North,-999,-999.0,-999.0,90,-99.99,,,-99.99,,2013-02-23 09:52:00,
2013-02-23 02:01:00,27.0,24.0,-100.00,North,-999,-999.0,-999.0,90,-99.99,,,-99.99,,2013-02-23 10:01:00,
2013-02-23 02:21:00,27.0,24.0,-100.00,North,-999,-999.0,-999.0,90,-99.99,,,-99.99,,2013-02-23 10:21:00,
2013-02-23 02:31:00,28.0,25.0,-100.00,North,-999,-999.0,-999.0,88,-99.99,,,-99.99,,2013-02-23 10:31:00,
2013-02-23 02:42:00,28.0,25.0,-100.00,North,-999,-999.0,-999.0,88,-99.99,,,-99.99,,2013-02-23 10:42:00,
2013-02-23 02:52:00,28.0,25.0,-100.00,North,-999,-999.0,-999.0,88,-99.99,,,-99.99,,2013-02-23 10:52:00,
2013-02-23 03:02:00,26.0,24.0,-100.00,North,-999,-999.0,-999.0,92,-99.99,,,-99.99,,2013-02-23 11:02:00,
2013-02-23 03:32:00,27.0,24.0,-100.00,North,-999,-999.0,-999.0,89,-99.99,,,-99.99,,2013-02-23 11:32:00,
2013-02-23 03:42:00,27.0,24.0,-100.00,North,-999,-999.0,-999.0,89,-99.99,,,-99.99,,2013-02-23 11:42:00,
2013-02-23 03:52:00,28.0,25.0,-100.00,North,-999,-999.0,-999.0,88,-99.99,,,-99.99,,2013-02-23 11:52:00,
2013-02-23 04:01:00,28.0,25.0,-100.00,North,-999,-999.0,-999.0,88,-99.99,,,-99.99,,2013-02-23 12:01:00,
2013-02-23 04:11:00,28.0,25.0,-100.00,North,-999,-999.0,-999.0,88,-99.99,,,-99.99,,2013-02-23 12:11:00,
2013-02-23 04:21:00,28.0,25.0,-100.00,North,-999,-999.0,-999.0,88,-99.99,,,-99.99,,2013-02-23 12:21:00,
2013-02-23 04:32:00,28.0,24.0,-100.00,North,-999,-999.0,-999.0,86,-99.99,,,-99.99,,2013-02-23 12:32:00,
2013-02-23 04:42:00,28.0,24.0,-100.00,North,-999,-999.0,-999.0,86,-99.99,,,-99.99,,2013-02-23 12:42:00,
2013-02-23 04:52:00,28.0,24.0,-100.00,North,-999,-999.0,-999.0,86,-99.99,,,-99.99,,2013-02-23 12:52:00,
2013-02-23 05:01:00,29.0,24.0,-100.00,North,-999,-999.0,-999.0,82,-99.99,,,-99.99,,2013-02-23 13:01:00,
2013-02-23 05:11:00,29.0,24.0,-100.00,North,-999,-999.0,-999.0,82,-99.99,,,-99.99,,2013-02-23 13:11:00,
2013-02-23 05:22:00,29.0,24.0,-100.00,North,-999,-999.0,-999.0,82,-99.99,,,-99.99,,2013-02-23 13:22:00,
2013-02-23 05:31:00,29.0,25.0,-100.00,North,-999,-999.0,-999.0,84,-99.99,,,-99.99,,2013-02-23 13:31:00,
2013-02-23 05:42:00,29.0,25.0,-100.00,North,-999,-999.0,-999.0,84,-99.99,,,-99.99,,2013-02-23 13:42:00,
2013-02-23 05:52:00,29.0,25.0,-100.00,North,-999,-999.0,-999.0,84,-99.99,,,-99.99,,2013-02-23 13:52:00,
2013-02-23 06:01:00,27.0,24.0,-100.00,North,-999,-999.0,-999.0,87,-99.99,,,-99.99,,2013-02-23 14:01:00,
2013-02-23 06:11:00,27.0,24.0,-100.00,North,-999,-999.0,-999.0,87,-99.99,,,-99.99,,2013-02-23 14:11:00,
2013-02-23 06:21:00,29.0,25.0,-100.00,North,-999,-999.0,-999.0,85,-99.99,,,-99.99,,2013-02-23 14:21:00,
2013-02-23 06:32:00,29.0,25.0,-100.00,North,-999,-999.0,-999.0,85,-99.99,,,-99.99,,2013-02-23 14:32:00,
2013-02-23 06:42:00,29.0,25.0,-100.00,North,-999,-999.0,-999.0,85,-99.99,,,-99.99,,2013-02-23 14:42:00,
2013-02-23 06:52:00,29.0,25.0,-100.00,North,-999,-999.0,-999.0,85,-99.99,,,-99.99,,2013-02-23 14:52:00,
2013-02-23 07:01:00,34.0,26.0,-100.00,North,-999,-999.0,-999.0,72,-99.99,,,-99.99,,2013-02-23 15:01:00,
2013-02-23 07:11:00,34.0,26.0,-100.00,North,-999,-999.0,-999.0,72,-99.99,,,-99.99,,2013-02-23 15:11:00,
2013-02-23 07:21:00,34.0,26.0,-100.00,North,-999,-999.0,-999.0,72,-99.99,,,-99.99,,2013-02-23 15:21:00,
2013-02-23 07:31:00,36.0,26.0,-100.00,North,-999,-999.0,-999.0,68,-99.99,,,-99.99,,2013-02-23 15:31:00,
2013-02-23 07:42:00,36.0,26.0,-100.00,North,-999,-999.0,-999.0,68,-99.99,,,-99.99,,2013-02-23 15:42:00,
2013-02-23 07:52:00,36.0,26.0,-100.00,North,-999,-999.0,-999.0,68,-99.99,,,-99.99,,2013-02-23 15:52:00,
2013-02-23 08:01:00,36.0,27.0,-100.00,North,-999,-999.0,-999.0,69,-99.99,,,-99.99,,2013-02-23 16:01:00,
2013-02-23 08:11:00,36.0,27.0,-100.00,North,-999,-999.0,-999.0,69,-99.99,,,-99.99,,2013-02-23 16:11:00,
2013-02-23 08:21:00,51.0,33.0,-100.00,North,-999,-999.0,-999.0,49,-99.99,,,-99.99,,2013-02-23 16:21:00,
2013-02-23 08:31:00,51.0,33.0,-100.00,North,-999,-999.0,-999.0,49,-99.99,,,-99.99,,2013-02-23 16:31:00,
2013-02-23 08:42:00,51.0,33.0,-100.00,North,-999,-999.0,-999.0,49,-99.99,,,-99.99,,2013-02-23 16:42:00,
2013-02-23 08:52:00,51.0,33.0,-100.00,North,-999,-999.0,-999.0,49,-99.99,,,-99.99,,2013-02-23 16:52:00,
2013-02-23 09:01:00,59.0,34.0,-100.00,North,-999,-999.0,-999.0,39,-99.99,,,-99.99,,2013-02-23 17:01:00,
2013-02-23 09:21:00,59.0,34.0,-100.00,North,-999,-999.0,-999.0,39,-99.99,,,-99.99,,2013-02-23 17:21:00,
2013-02-23 09:31:00,59.0,34.0,-100.00,North,-999,-999.0,-999.0,39,-99.99,,,-99.99,,2013-02-23 17:31:00,
2013-02-23 09:42:00,59.0,34.0,-100.00,North,-999,-999.0,-999.0,39,-99.99,,,-99.99,,2013-02-23 17:42:00,
2013-02-23 09:52:00,59.0,34.0,-100.00,North,-999,-999.0,-999.0,39,-99.99,,,-99.99,,2013-02-23 17:52:00,
2013-02-23 10:01:00,60.0,32.0,-100.00,North,-999,-999.0,-999.0,34,-99.99,,,-99.99,,2013-02-23 18:01:00,
2013-02-23 10:12:00,60.0,32.0,-100.00,North,-999,-999.0,-999.0,34,-99.99,,,-99.99,,2013-02-23 18:12:00,
2013-02-23 10:21:00,60.0,32.0,-100.00,North,-999,-999.0,-999.0,34,-99.99,,,-99.99,,2013-02-23 18:21:00,
2013-02-23 10:31:00,61.0,35.0,-100.00,North,-999,-999.0,-999.0,37,-99.99,,,-99.99,,2013-02-23 18:31:00,
2013-02-23 10:42:00,61.0,35.0,-100.00,North,-999,-999.0,-999.0,37,-99.99,,,-99.99,,2013-02-23 18:42:00,
2013-02-23 10:52:00,61.0,35.0,-100.00,North,-999,-999.0,-999.0,37,-99.99,,,-99.99,,2013-02-23 18:52:00,
2013-02-23 11:01:00,63.0,29.0,-100.00,North,-999,-999.0,-999.0,27,-99.99,,,-99.99,,2013-02-23 19:01:00,
2013-02-23 11:11:00,63.0,29.0,-100.00,North,-999,-999.0,-999.0,27,-99.99,,,-99.99,,2013-02-23 19:11:00,
2013-02-23 11:21:00,63.0,29.0,-100.00,North,-999,-999.0,-999.0,27,-99.99,,,-99.99,,2013-02-23 19:21:00,
2013-02-23 11:32:00,63.0,28.0,-100.00,North,-999,-999.0,-999.0,26,-99.99,,,-99.99,,2013-02-23 19:32:00,
2013-02-23 11:42:00,63.0,28.0,-100.00,North,-999,-999.0,-999.0,26,-99.99,,,-99.99,,2013-02-23 19:42:00,
2013-02-23 11:52:00,63.0,28.0,-100.00,North,-999,-999.0,-999.0,26,-99.99,,,-99.99,,2013-02-23 19:52:00,
2013-02-23 12:01:00,63.0,31.0,-100.00,North,-999,-999.0,-999.0,30,-99.99,,,-99.99,,2013-02-23 20:01:00,
2013-02-23 12:11:00,63.0,31.0,-100.00,North,-999,-999.0,-999.0,30,-99.99,,,-99.99,,2013-02-23 20:11:00,
2013-02-23 12:21:00,63.0,31.0,-100.00,North,-999,-999.0,-999.0,30,-99.99,,,-99.99,,2013-02-23 20:21:00,
2013-02-23 12:31:00,63.0,28.0,-100.00,North,-999,-999.0,-999.0,26,-99.99,,,0.00,,2013-02-23 20:31:00,
2013-02-23 12:42:00,63.0,28.0,-100.00,North,-999,-999.0,-999.0,26,-99.99,,,0.00,,2013-02-23 20:42:00,
2013-02-23 12:52:00,63.0,28.0,-100.00,North,-999,-999.0,-999.0,26,-99.99,,,0.00,,2013-02-23 20:52:00,
2013-02-23 13:01:00,63.0,27.0,-100.00,North,-999,-999.0,-999.0,25,-99.99,,,-99.99,,2013-02-23 21:01:00,
2013-02-23 13:11:00,63.0,27.0,-100.00,North,-999,-999.0,-999.0,25,-99.99,,,-99.99,,2013-02-23 21:11:00,
2013-02-23 13:22:00,63.0,27.0,-100.00,North,-999,-999.0,-999.0,25,-99.99,,,-99.99,,2013-02-23 21:22:00,
2013-02-23 13:31:00,64.0,29.0,-100.00,North,-999,-999.0,-999.0,27,-99.99,,,-99.99,,2013-02-23 21:31:00,
2013-02-23 13:42:00,64.0,29.0,-100.00,North,-999,-999.0,-999.0,27,-99.99,,,-99.99,,2013-02-23 21:42:00,
2013-02-23 13:52:00,64.0,29.0,-100.00,North,-999,-999.0,-999.0,27,-99.99,,,-99.99,,2013-02-23 21:52:00,
2013-02-23 14:01:00,63.0,26.0,-100.00,North,-999,-999.0,-999.0,24,-99.99,,,-99.99,,2013-02-23 22:01:00,
2013-02-23 14:11:00,63.0,26.0,-100.00,North,-999,-999.0,-999.0,24,-99.99,,,-99.99,,2013-02-23 22:11:00,
2013-02-23 14:21:00,63.0,26.0,-100.00,North,-999,-999.0,-999.0,24,-99.99,,,-99.99,,2013-02-23 22:21:00,
2013-02-23 14:31:00,62.0,28.0,-100.00,North,-999,-999.0,-999.0,27,-99.99,,,-99.99,,2013-02-23 22:31:00,
2013-02-23 14:42:00,62.0,28.0,-100.00,North,-999,-999.0,-999.0,27,-99.99,,,-99.99,,2013-02-23 22:42:00,
2013-02-23 14:52:00,63.0,20.0,-100.00,North,-999,-999.0,-999.0,19,-99.99,,,-99.99,,2013-02-23 22:52:00,
2013-02-23 15:01:00,63.0,20.0,-100.00,North,-999,-999.0,-999.0,19,-99.99,,,-99.99,,2013-02-23 23:01:00,
2013-02-23 15:11:00,63.0,20.0,-100.00,North,-999,-999.0,-999.0,19,-99.99,,,-99.99,,2013-02-23 23:11:00,
2013-02-23 15:21:00,63.0,20.0,-100.00,North,-999,-999.0,-999.0,19,-99.99,,,-99.99,,2013-02-23 23:21:00,
2013-02-23 15:31:00,64.0,21.0,-100.00,North,-999,-999.0,-999.0,19,-99.99,,,-99.99,,2013-02-23 23:31:00,
2013-02-23 15:42:00,64.0,21.0,-100.00,North,-999,-999.0,-999.0,19,-99.99,,,-99.99,,2013-02-23 23:42:00,
2013-02-23 15:52:00,64.0,21.0,-100.00,North,-999,-999.0,-999.0,19,-99.99,,,-99.99,,2013-02-23 23:52:00,
2013-02-23 16:01:00,60.0,20.0,-100.00,North,-999,-999.0,-999.0,21,-99.99,,,-99.99,,2013-02-24 00:01:00,
2013-02-23 16:11:00,60.0,20.0,-100.00,North,-999,-999.0,-999.0,21,-99.99,,,-99.99,,2013-02-24 00:11:00,
2013-02-23 16:22:00,57.0,22.0,-100.00,North,-999,-999.0,-999.0,26,-99.99,,,-99.99,,2013-02-24 00:22:00,
2013-02-23 16:31:00,57.0,22.0,-100.00,North,-999,-999.0,-999.0,26,-99.99,,,-99.99,,2013-02-24 00:31:00,
2013-02-23 16:42:00,57.0,22.0,-100.00,North,-999,-999.0,-999.0,26,-99.99,,,-99.99,,2013-02-24 00:42:00,
2013-02-23 16:52:00,57.0,22.0,-100.00,North,-999,-999.0,-999.0,26,-99.99,,,-99.99,,2013-02-24 00:52:00,
2013-02-23 17:01:00,57.0,22.0,-100.00,North,-999,-999.0,-999.0,26,-99.99,,,-99.99,,2013-02-24 01:01:00,
2013-02-23 18:32:00,48.0,22.0,-100.00,North,-999,-999.0,-999.0,35,-99.99,,,-99.99,,2013-02-24 02:32:00,
2013-02-23 18:42:00,48.0,22.0,-100.00,North,-999,-999.0,-999.0,35,-99.99,,,-99.99,,2013-02-24 02:42:00,
2013-02-23 18:52:00,48.0,22.0,-100.00,North,-999,-999.0,-999.0,35,-99.99,,,-99.99,,2013-02-24 02:52:00,
2013-02-23 19:01:00,43.0,22.0,-100.00,North,-999,-999.0,-999.0,42,-99.99,,,-99.99,,2013-02-24 03:01:00,
2013-02-23 19:11:00,43.0,22.0,-100.00,North,-999,-999.0,-999.0,42,-99.99,,,-99.99,,2013-02-24 03:11:00,
2013-02-23 19:21:00,43.0,22.0,-100.00,North,-999,-999.0,-999.0,42,-99.99,,,-99.99,,2013-02-24 03:21:00,
2013-02-23 19:31:00,43.0,20.0,-100.00,North,-999,-999.0,-999.0,39,-99.99,,,-99.99,,2013-02-24 03:31:00,
2013-02-23 19:42:00,43.0,20.0,-100.00,North,-999,-999.0,-999.0,39,-99.99,,,-99.99,,2013-02-24 03:42:00,
2013-02-23 19:52:00,43.0,20.0,-100.00,North,-999,-999.0,-999.0,39,-99.99,,,-99.99,,2013-02-24 03:52:00,
2013-02-23 20:01:00,46.0,14.0,-100.00,North,-999,-999.0,-999.0,27,-99.99,,,-99.99,,2013-02-24 04:01:00,
2013-02-23 20:31:00,47.0,8.0,-100.00,North,-999,-999.0,-999.0,20,-99.99,,,-99.99,,2013-02-24 04:31:00,
2013-02-23 20:42:00,47.0,8.0,-100.00,North,-999,-999.0,-999.0,20,-99.99,,,-99.99,,2013-02-24 04:42:00,
2013-02-23 20:52:00,47.0,8.0,-100.00,North,-999,-999.0,-999.0,20,-99.99,,,-99.99,,2013-02-24 04:52:00,
2013-02-23 21:01:00,47.0,3.0,-100.00,North,-999,-999.0,-999.0,16,-99.99,,,-99.99,,2013-02-24 05:01:00,
2013-02-23 21:32:00,46.0,4.0,-100.00,North,-999,-999.0,-999.0,17,-99.99,,,-99.99,,2013-02-24 05:32:00,
2013-02-23 21:42:00,46.0,4.0,-100.00,North,-999,-999.0,-999.0,17,-99.99,,,-99.99,,2013-02-24 05:42:00,
2013-02-23 21:52:00,46.0,4.0,-100.00,North,-999,-999.0,-999.0,17,-99.99,,,-99.99,,2013-02-24 05:52:00,
2013-02-23 22:01:00,43.0,12.0,-100.00,North,-999,-999.0,-999.0,28,-99.99,,,-99.99,,2013-02-24 06:01:00,
2013-02-23 22:31:00,37.0,11.0,-100.00,North,-999,-999.0,-999.0,34,-99.99,,,-99.99,,2013-02-24 06:31:00,
2013-02-23 22:42:00,37.0,11.0,-100.00,North,-999,-999.0,-999.0,34,-99.99,,,-99.99,,2013-02-24 06:42:00,
2013-02-23 22:52:00,37.0,11.0,-100.00,North,-999,-999.0,-999.0,34,-99.99,,,-99.99,,2013-02-24 06:52:00,
2013-02-23 23:01:00,35.0,14.0,-100.00,North,-999,-999.0,-999.0,41,-99.99,,,-99.99,,2013-02-24 07:01:00,
2013-02-23 23:11:00,35.0,14.0,-100.00,North,-999,-999.0,-999.0,41,-99.99,,,-99.99,,2013-02-24 07:11:00,
2013-02-23 23:21:00,35.0,14.0,-100.00,North,-999,-999.0,-999.0,41,-99.99,,,-99.99,,2013-02-24 07:21:00,
2013-02-23 23:31:00,35.0,14.0,-100.00,North,-999,-999.0,-999.0,41,-99.99,,,-99.99,,2013-02-24 07:31:00,